Home > Weather > Saipan > Past weeks

Flag for Northern Mariana Islands Past Weather in Saipan, Northern Mariana Islands — Yesterday and Last 2 Weeks

Now
81 °F

Passing clouds.


Feels Like: 87 °F
Forecast: 78 / 84 °F
Wind: 7 mph from East

Location: Saipan International Airport

Current Time: Jun 29, 2016 at 4:50:41 AM

Latest Report: Jun 29, 2016 at 3:54 AM


Visibility: 10 mi

Pressure: 29.98 "Hg

Humidity: 85%

Dew Point: 76 °F

Location of SaipanLocation

Past Weather in Saipan — Graph

°F

Saipan Temperature Yesterday

Maximum temperature yesterday: 89 °F (at 9:54 AM)
Minimum temperature yesterday: 79 °F (at 6:54 PM)
Average temperature yesterday: 84 °F

High & Low Weather Summary for the Past Weeks

 TemperatureHumidityPressure
High92 °F (Jun 16, 12:54 PM)94% (Jun 24, 5:01 AM)30.03 "Hg (Jun 24, 5:01 AM)
Low78 °F (Jun 17, 3:54 AM)59% (Jun 20, 11:54 AM)29.83 "Hg (Jun 21, 3:43 PM)
Average85 °F77%29.94 "Hg
* Reported Jun 14 2:54 AM — Jun 29 2:54 AM, Saipan, Weather by CustomWeather, © 2016

Note: Actual official high and low records may vary slightly from our data, if they occured in-between our weather recording intervals... More about our weather records

Advertising

Saipan Weather History for the Previous 24 Hours

Scroll right to see more
 ConditionsComfort  
Time TempWeatherWind HumidityBarometerVisibility
2:54 AM
Wed, Jun 29
81 °FPassing clouds.8 mph85%29.98 "Hg10 mi
1:54 AM81 °FPassing clouds.9 mph85%29.98 "Hg10 mi
12:54 AM82 °FPartly cloudy.10 mph85%29.99 "Hg10 mi
11:54 PM
Tue, Jun 28
82 °FPartly cloudy.8 mph85%30.01 "Hg10 mi
10:54 PM82 °FPassing clouds.12 mph88%30.01 "Hg10 mi
9:54 PM82 °FPassing clouds.12 mph88%30.01 "Hg10 mi
8:54 PM82 °FPassing clouds.12 mph88%30.01 "Hg10 mi
7:54 PM81 °FPassing clouds.9 mph91%30.00 "Hg10 mi
6:54 PM79 °FPassing clouds.6 mph94%29.98 "Hg9 mi
5:54 PM83 °FLight rain. Scattered clouds.7 mph88%29.97 "Hg9 mi
4:54 PM86 °FScattered clouds.10 mph77%29.96 "Hg10 mi
3:54 PM87 °FBroken clouds.14 mph72%29.96 "Hg10 mi
2:54 PM88 °FBroken clouds.15 mph73%29.96 "Hg10 mi
1:54 PM89 °FScattered clouds.14 mph70%29.98 "Hg10 mi
12:54 PM86 °FSunny.15 mph75%30.00 "Hg10 mi
11:54 AM88 °FScattered clouds.15 mph70%30.01 "Hg10 mi
10:54 AM89 °FPassing clouds.13 mph61%30.02 "Hg10 mi
9:54 AM89 °FPartly sunny.15 mph68%30.02 "Hg10 mi
8:54 AM86 °FScattered clouds.15 mph70%30.03 "Hg10 mi
7:54 AM85 °FScattered clouds.12 mph77%30.01 "Hg10 mi
6:54 AM83 °FScattered clouds.12 mph85%30.01 "Hg10 mi
5:54 AM82 °FScattered clouds.12 mph85%29.99 "Hg10 mi
4:54 AM80 °FLight rain. Passing clouds.9 mph90%29.98 "Hg10 mi
Weather by CustomWeather, © 2016

See weather overviewHow to use our weather pages